Consulta los datos en tiempo real de la estación municipal de St. Hilari Sacalm
| Hora UTC | 11:40 |
|---|---|
| Temperatura | 31.5 ºC |
| Humedad | 32.5 % |
| Presión | 1025.6 hPa |
| Pluja | 0.0 mm |
| Velocidad viento | 8.9 km/h |
| Dirección viento | S |
| Radiación solar | 719.8 W/m² |
| Temperatura (ºC) | Humedad (%) | Presión (hPa) | Velocidad viento (km/h) | Precipitación (mm) | Radiación solar (W/m²) | |||||||||||||
|---|---|---|---|---|---|---|---|---|---|---|---|---|---|---|---|---|---|---|
| Hora UTC | Aire | Humedad | Presión | Vel. | Dir. | Vel. Max | Dir. | Intent. máx 5 min. | Rad. Sol. | |||||||||
| 00:05 | 24.7 | 56.0 | 1024.0 | 0.7 | NW | 0.7 | NW | 0.0 | 0.1 | |||||||||
| 00:10 | 24.7 | 56.4 | 1024.0 | 1.7 | WNW | 8.8 | W | 0.0 | 0.1 | |||||||||
| 00:15 | 24.4 | 57.7 | 1024.0 | 0.1 | WNW | 3.4 | WNW | 0.0 | 0.1 | |||||||||
| 00:20 | 24.0 | 59.5 | 1024.0 | 1.9 | WNW | 8.8 | WNW | 0.0 | 0.1 | |||||||||
| 00:25 | 23.6 | 61.3 | 1024.0 | 1.0 | WNW | 8.8 | WNW | 0.0 | 0.1 | |||||||||
| 00:30 | 23.0 | 63.5 | 1024.0 | 0.4 | W | 6.1 | WNW | 0.0 | 0.1 | |||||||||
| 00:35 | 22.7 | 65.1 | 1023.9 | 0.3 | WNW | 6.1 | NW | 0.0 | 0.1 | |||||||||
| 00:40 | 22.5 | 65.8 | 1023.9 | 0.6 | W | 6.1 | WNW | 0.0 | 0.1 | |||||||||
| 00:45 | 22.2 | 66.7 | 1023.9 | 0.0 | NNE | 0.0 | SW | 0.0 | 0.1 | |||||||||
| 00:50 | 22.2 | 67.9 | 1023.9 | 0.5 | WNW | 8.8 | WNW | 0.0 | 0.1 | |||||||||
| 00:55 | 23.1 | 65.6 | 1023.9 | 0.0 | NNE | 0.0 | NW | 0.0 | 0.1 | |||||||||
| 01:00 | 23.7 | 63.4 | 1023.9 | 0.0 | NNE | 0.0 | NW | 0.0 | 0.1 | |||||||||
| 01:05 | 24.0 | 62.4 | 1023.9 | 0.1 | NNW | 3.4 | N | 0.0 | 0.1 | |||||||||
| 01:10 | 23.9 | 63.1 | 1024.0 | 0.0 | NNE | 0.0 | NNW | 0.0 | 0.1 | |||||||||
| 01:15 | 23.9 | 62.7 | 1024.0 | 0.0 | NNE | 0.0 | NNW | 0.0 | 0.1 | |||||||||
| 01:20 | 24.1 | 61.8 | 1024.0 | 1.1 | NW | 8.8 | WNW | 0.0 | 0.1 | |||||||||
| 01:25 | 23.9 | 62.0 | 1024.0 | 0.8 | WNW | 8.8 | WNW | 0.0 | 0.1 | |||||||||
| 01:30 | 23.4 | 63.0 | 1024.0 | 0.0 | NNE | 0.0 | W | 0.0 | 0.1 | |||||||||
| 01:35 | 22.7 | 65.7 | 1024.0 | 0.0 | NNE | 0.0 | WSW | 0.0 | 0.1 | |||||||||
| 01:40 | 22.2 | 68.0 | 1024.0 | 0.0 | NNE | 0.0 | SSW | 0.0 | 0.2 | |||||||||
| 01:45 | 21.9 | 69.1 | 1024.0 | 0.0 | NNE | 0.0 | WSW | 0.0 | 0.2 | |||||||||
| 01:50 | 21.8 | 69.7 | 1024.0 | 0.0 | NNE | 0.0 | S | 0.0 | 0.1 | |||||||||
| 01:55 | 21.9 | 69.2 | 1024.1 | 0.1 | WSW | 6.1 | WSW | 0.0 | 0.1 | |||||||||
| 02:00 | 21.8 | 69.9 | 1024.1 | 0.0 | NNE | 0.0 | SSW | 0.0 | 0.1 | |||||||||
| 02:05 | 21.5 | 71.6 | 1024.0 | 0.0 | NNE | 0.0 | SW | 0.0 | 0.1 | |||||||||
| 02:10 | 21.2 | 72.7 | 1024.1 | 0.1 | SSW | 3.4 | SSW | 0.0 | 0.1 | |||||||||
| 02:15 | 21.0 | 73.1 | 1024.1 | 0.2 | W | 6.1 | W | 0.0 | 0.1 | |||||||||
| 02:20 | 21.1 | 73.1 | 1024.1 | 0.7 | W | 8.8 | W | 0.0 | 0.1 | |||||||||
| 02:25 | 21.2 | 72.7 | 1024.0 | 1.1 | W | 8.8 | WSW | 0.0 | 0.1 | |||||||||
| 02:30 | 21.4 | 72.1 | 1024.0 | 0.0 | NNE | 0.0 | SW | 0.0 | 0.1 | |||||||||
| 02:35 | 21.8 | 70.4 | 1024.0 | 0.0 | NNE | 0.0 | SSW | 0.0 | 0.1 | |||||||||
| 02:40 | 21.8 | 70.1 | 1024.0 | 0.0 | NNE | 0.0 | WNW | 0.0 | 0.1 | |||||||||
| 02:45 | 21.7 | 70.3 | 1024.0 | 0.0 | NNE | 0.0 | SW | 0.0 | 0.1 | |||||||||
| 02:50 | 21.7 | 70.3 | 1024.0 | 0.0 | NNE | 0.0 | S | 0.0 | 0.1 | |||||||||
| 02:55 | 21.5 | 71.0 | 1024.0 | 0.0 | NNE | 0.0 | SW | 0.0 | 0.1 | |||||||||
| 03:00 | 21.4 | 71.1 | 1024.0 | 0.0 | WSW | 3.4 | WSW | 0.0 | 0.1 | |||||||||
| 03:05 | 21.4 | 71.2 | 1024.0 | 0.0 | NNE | 0.0 | S | 0.0 | 0.1 | |||||||||
| 03:10 | 21.3 | 71.0 | 1024.0 | 0.0 | NNE | 0.0 | S | 0.0 | 0.1 | |||||||||
| 03:15 | 21.3 | 70.8 | 1024.0 | 0.0 | NNE | 0.0 | SSE | 0.0 | 0.1 | |||||||||
| 03:20 | 21.2 | 71.3 | 1024.0 | 0.0 | NNE | 0.0 | SSW | 0.0 | 0.2 | |||||||||
| 03:25 | 21.0 | 71.5 | 1024.0 | 0.0 | NNE | 0.0 | SW | 0.0 | 0.1 | |||||||||
| 03:30 | 21.1 | 70.6 | 1024.0 | 0.0 | NNE | 0.0 | S | 0.0 | 0.1 | |||||||||
| 03:35 | 21.0 | 70.6 | 1024.0 | 0.0 | NNE | 0.0 | ESE | 0.0 | 0.1 | |||||||||
| 03:40 | 21.0 | 70.9 | 1024.0 | 0.0 | NNE | 0.0 | WSW | 0.0 | 0.1 | |||||||||
| 03:45 | 20.8 | 71.9 | 1024.0 | 0.0 | NNE | 0.0 | WSW | 0.0 | 0.1 | |||||||||
| 03:50 | 20.6 | 71.8 | 1024.0 | 0.0 | NNE | 0.0 | SSW | 0.0 | 0.1 | |||||||||
| 03:55 | 20.6 | 71.7 | 1024.0 | 0.0 | NNE | 0.0 | S | 0.0 | 0.1 | |||||||||
| 04:00 | 20.6 | 71.7 | 1024.0 | 0.0 | NNE | 0.0 | S | 0.0 | 0.1 | |||||||||
| 04:05 | 20.7 | 70.7 | 1024.0 | 0.0 | NNE | 0.0 | SSW | 0.0 | 0.1 | |||||||||
| 04:10 | 20.8 | 69.2 | 1023.9 | 0.0 | NNE | 0.0 | SSW | 0.0 | 0.1 | |||||||||
| 04:15 | 20.8 | 69.3 | 1023.9 | 0.0 | NNE | 0.0 | SW | 0.0 | 0.1 | |||||||||
| 04:20 | 20.7 | 68.6 | 1023.9 | 0.0 | NNE | 0.0 | SSW | 0.0 | 0.1 | |||||||||
| 04:25 | 20.7 | 68.2 | 1023.9 | 0.0 | NNE | 0.0 | SSW | 0.0 | 0.1 | |||||||||
| 04:30 | 20.5 | 68.4 | 1023.9 | 0.0 | NNE | 0.0 | SSW | 0.0 | 0.1 | |||||||||
| 04:35 | 20.4 | 68.8 | 1023.9 | 0.0 | NNE | 0.0 | WSW | 0.0 | 0.1 | |||||||||
| 04:40 | 20.2 | 69.3 | 1023.9 | 0.4 | SW | 6.1 | WSW | 0.0 | 0.1 | |||||||||
| 04:45 | 20.1 | 67.9 | 1023.9 | 0.0 | NNE | 0.0 | SSW | 0.0 | 0.1 | |||||||||
| 04:50 | 20.1 | 66.5 | 1024.0 | 0.1 | WSW | 6.1 | WSW | 0.0 | 0.2 | |||||||||
| 04:55 | 20.2 | 64.3 | 1024.0 | 0.1 | SW | 6.1 | SW | 0.0 | 0.2 | |||||||||
| 05:00 | 20.4 | 64.1 | 1024.1 | 0.0 | WSW | 3.4 | WSW | 0.0 | 0.2 | |||||||||
| 05:05 | 20.3 | 64.8 | 1024.1 | 0.2 | SSW | 6.1 | SSW | 0.0 | 0.3 | |||||||||
| 05:10 | 20.1 | 65.7 | 1024.1 | 0.0 | WSW | 3.4 | SSW | 0.0 | 0.8 | |||||||||
| 05:15 | 19.9 | 64.8 | 1024.1 | 0.0 | SW | 3.4 | SW | 0.0 | 1.6 | |||||||||
| 05:20 | 20.2 | 63.8 | 1024.2 | 0.1 | SW | 3.4 | SSW | 0.0 | 2.5 | |||||||||
| 05:25 | 20.3 | 61.5 | 1024.3 | 0.5 | WSW | 6.1 | WSW | 0.0 | 3.9 | |||||||||
| 05:30 | 20.5 | 60.5 | 1024.3 | 0.0 | WSW | 3.4 | WSW | 0.0 | 6.4 | |||||||||
| 05:35 | 20.6 | 61.4 | 1024.4 | 0.0 | NNE | 0.0 | WSW | 0.0 | 11.0 | |||||||||
| 05:40 | 20.6 | 62.7 | 1024.4 | 0.0 | NNE | 0.0 | S | 0.0 | 17.5 | |||||||||
| 05:45 | 20.4 | 62.5 | 1024.4 | 0.4 | WSW | 6.1 | SW | 0.0 | 24.3 | |||||||||
| 05:50 | 20.4 | 61.7 | 1024.4 | 0.0 | WSW | 3.4 | WSW | 0.0 | 33.8 | |||||||||
| 05:55 | 20.7 | 62.1 | 1024.4 | 0.0 | NNE | 0.0 | SSW | 0.0 | 48.2 | |||||||||
| 06:00 | 20.8 | 61.8 | 1024.5 | 0.0 | NNE | 0.0 | SSW | 0.0 | 60.8 | |||||||||
| 06:05 | 21.1 | 61.2 | 1024.6 | 0.0 | NNE | 0.0 | SW | 0.0 | 72.8 | |||||||||
| 06:10 | 21.2 | 61.0 | 1024.6 | 0.0 | NNE | 0.0 | SSW | 0.0 | 83.4 | |||||||||
| 06:15 | 21.4 | 60.6 | 1024.6 | 0.0 | NNE | 0.0 | SSW | 0.0 | 92.2 | |||||||||
| 06:20 | 21.7 | 60.2 | 1024.6 | 0.0 | NNE | 0.0 | SSW | 0.0 | 81.3 | |||||||||
| 06:25 | 21.9 | 58.1 | 1024.7 | 0.0 | NNE | 0.0 | SSW | 0.0 | 98.1 | |||||||||
| 06:30 | 22.1 | 59.4 | 1024.7 | 0.0 | NNE | 0.0 | S | 0.0 | 112.1 | |||||||||
| 06:35 | 22.1 | 58.8 | 1024.7 | 0.0 | NNE | 0.0 | SSW | 0.0 | 83.5 | |||||||||
| 06:40 | 22.3 | 57.8 | 1024.8 | 0.0 | NNE | 0.0 | SSW | 0.0 | 114.3 | |||||||||
| 06:45 | 22.6 | 57.0 | 1024.8 | 0.0 | NNE | 0.0 | SSW | 0.0 | 155.7 | |||||||||
| 06:50 | 22.9 | 56.5 | 1024.9 | 0.0 | NNE | 0.0 | SSW | 0.0 | 186.1 | |||||||||
| 06:55 | 23.3 | 56.1 | 1024.9 | 0.0 | NNE | 0.0 | SSW | 0.0 | 210.7 | |||||||||
| 07:00 | 23.9 | 54.4 | 1025.0 | 0.0 | NNE | 0.0 | SSW | 0.0 | 220.9 | |||||||||
| 07:05 | 24.6 | 51.6 | 1025.1 | 0.0 | NNE | 0.0 | SW | 0.0 | 240.1 | |||||||||
| 07:10 | 25.4 | 50.7 | 1025.1 | 0.0 | NNE | 0.0 | SW | 0.0 | 258.9 | |||||||||
| 07:15 | 25.7 | 48.6 | 1025.1 | 0.0 | NNE | 0.0 | S | 0.0 | 276.1 | |||||||||
| 07:20 | 26.4 | 43.6 | 1025.1 | 0.0 | NNE | 0.0 | SSE | 0.0 | 291.8 | |||||||||
| 07:25 | 27.3 | 40.7 | 1025.1 | 0.0 | NNE | 0.0 | SSE | 0.0 | 308.0 | |||||||||
| 07:30 | 28.2 | 38.2 | 1025.1 | 0.0 | NNE | 0.0 | S | 0.0 | 322.9 | |||||||||
| 07:35 | 28.8 | 34.6 | 1025.2 | 0.0 | NNE | 0.0 | S | 0.0 | 336.9 | |||||||||
| 07:40 | 28.5 | 34.1 | 1025.2 | 0.0 | NNE | 0.0 | SSE | 0.0 | 349.2 | |||||||||
| 07:45 | 28.6 | 33.2 | 1025.2 | 3.4 | SSE | 11.5 | S | 0.0 | 343.5 | |||||||||
| 07:50 | 28.6 | 33.5 | 1025.3 | 0.3 | SSE | 6.1 | SSE | 0.0 | 373.2 | |||||||||
| 07:55 | 28.8 | 32.9 | 1025.2 | 4.7 | S | 11.5 | S | 0.0 | 393.2 | |||||||||
| 08:00 | 28.9 | 33.0 | 1025.3 | 4.1 | S | 11.5 | S | 0.0 | 405.0 | |||||||||
| 08:05 | 28.8 | 32.8 | 1025.3 | 7.5 | S | 11.5 | S | 0.0 | 418.6 | |||||||||
| 08:10 | 28.8 | 33.1 | 1025.3 | 5.5 | S | 11.5 | SSE | 0.0 | 434.5 | |||||||||
| 08:15 | 29.3 | 32.7 | 1025.4 | 0.5 | SSE | 8.8 | S | 0.0 | 447.6 | |||||||||
| 08:20 | 29.7 | 32.5 | 1025.4 | 3.6 | S | 11.5 | SSW | 0.0 | 460.7 | |||||||||
| 08:25 | 29.5 | 32.9 | 1025.5 | 0.9 | SSE | 11.5 | SSE | 0.0 | 473.8 | |||||||||
| 08:30 | 29.3 | 32.9 | 1025.5 | 4.7 | SSE | 11.5 | SSE | 0.0 | 486.6 | |||||||||
| 08:35 | 29.4 | 32.5 | 1025.5 | 3.0 | SSE | 8.8 | S | 0.0 | 499.4 | |||||||||
| 08:40 | 29.8 | 32.8 | 1025.5 | 3.4 | S | 11.5 | S | 0.0 | 511.2 | |||||||||
| 08:45 | 29.9 | 32.5 | 1025.5 | 4.1 | S | 14.2 | SW | 0.0 | 523.3 | |||||||||
| 08:50 | 29.7 | 32.3 | 1025.5 | 1.1 | SE | 11.5 | ESE | 0.0 | 535.7 | |||||||||
| 08:55 | 29.5 | 33.1 | 1025.6 | 2.6 | S | 11.5 | S | 0.0 | 547.7 | |||||||||
| 09:00 | 29.8 | 32.4 | 1025.7 | 6.2 | SE | 14.2 | SE | 0.0 | 559.1 | |||||||||
| 09:05 | 29.5 | 32.9 | 1025.7 | 5.7 | SSE | 11.5 | W | 0.0 | 570.1 | |||||||||
| 09:10 | 29.2 | 33.3 | 1025.7 | 6.4 | SSE | 16.9 | SE | 0.0 | 581.9 | |||||||||
| 09:15 | 29.4 | 33.2 | 1025.7 | 7.4 | S | 14.2 | ESE | 0.0 | 593.7 | |||||||||
| 09:20 | 29.5 | 33.1 | 1025.8 | 8.2 | S | 19.6 | S | 0.0 | 603.3 | |||||||||
| 09:25 | 29.7 | 32.8 | 1025.8 | 5.7 | S | 11.5 | SSE | 0.0 | 612.9 | |||||||||
| 09:30 | 30.1 | 32.2 | 1025.8 | 4.7 | S | 14.2 | S | 0.0 | 622.8 | |||||||||
| 09:35 | 30.3 | 32.3 | 1025.8 | 7.4 | S | 16.9 | S | 0.0 | 632.6 | |||||||||
| 09:40 | 30.0 | 32.6 | 1025.9 | 8.3 | S | 14.2 | S | 0.0 | 641.1 | |||||||||
| 09:45 | 30.2 | 32.3 | 1025.9 | 7.1 | S | 14.2 | SW | 0.0 | 649.6 | |||||||||
| 09:50 | 30.1 | 32.1 | 1025.8 | 7.3 | SSE | 16.9 | SSE | 0.0 | 659.4 | |||||||||
| 09:55 | 30.0 | 32.0 | 1025.8 | 6.9 | SSE | 14.2 | SSE | 0.0 | 667.5 | |||||||||
| 10:00 | 30.0 | 32.4 | 1025.8 | 9.6 | S | 16.9 | S | 0.0 | 675.5 | |||||||||
| 10:05 | 29.8 | 32.8 | 1025.8 | 7.5 | SSE | 11.5 | SSE | 0.0 | 682.5 | |||||||||
| 10:10 | 29.7 | 33.7 | 1025.8 | 9.1 | S | 19.6 | SSE | 0.0 | 689.0 | |||||||||
| 10:15 | 30.3 | 33.2 | 1025.8 | 8.3 | SSE | 16.9 | S | 0.0 | 694.6 | |||||||||
| 10:20 | 30.1 | 33.6 | 1025.8 | 9.2 | SSE | 19.6 | SSE | 0.0 | 701.0 | |||||||||
| 10:25 | 30.5 | 33.4 | 1025.8 | 5.1 | SSE | 16.9 | SE | 0.0 | 706.8 | |||||||||
| 10:30 | 30.3 | 33.4 | 1025.8 | 8.2 | SSE | 16.9 | S | 0.0 | 712.3 | |||||||||
| 10:35 | 30.3 | 33.8 | 1025.8 | 9.2 | S | 19.6 | S | 0.0 | 716.8 | |||||||||
| 10:40 | 30.4 | 33.9 | 1025.7 | 5.8 | SSE | 14.2 | S | 0.0 | 721.4 | |||||||||
| 10:45 | 31.0 | 33.0 | 1025.7 | 6.1 | S | 11.5 | S | 0.0 | 726.2 | |||||||||
| 10:50 | 31.1 | 33.0 | 1025.7 | 8.5 | SSE | 16.9 | S | 0.0 | 729.2 | |||||||||
| 10:55 | 30.9 | 33.2 | 1025.7 | 7.5 | S | 16.9 | S | 0.0 | 732.7 | |||||||||
| 11:00 | 31.1 | 33.0 | 1025.7 | 10.4 | S | 19.6 | S | 0.0 | 736.2 | |||||||||
| 11:05 | 31.1 | 33.0 | 1025.7 | 9.0 | S | 16.9 | S | 0.0 | 733.9 | |||||||||
| 11:10 | 31.2 | 32.8 | 1025.6 | 9.2 | SSE | 19.6 | S | 0.0 | 742.7 | |||||||||
| 11:15 | 31.2 | 32.9 | 1025.6 | 10.1 | S | 19.6 | SSE | 0.0 | 744.5 | |||||||||
| 11:20 | 31.5 | 32.4 | 1025.6 | 8.2 | S | 16.9 | SSW | 0.0 | 747.1 | |||||||||
| 11:25 | 31.4 | 32.5 | 1025.6 | 8.6 | S | 19.6 | S | 0.0 | 749.9 | |||||||||
| 11:30 | 31.6 | 32.4 | 1025.6 | 10.9 | S | 22.3 | SSW | 0.0 | 753.3 | |||||||||
| 11:35 | 31.4 | 32.8 | 1025.6 | 9.6 | S | 16.9 | SSE | 0.0 | 728.2 | |||||||||
| 11:40 | 31.5 | 32.5 | 1025.6 | 8.9 | S | 19.6 | SSW | 0.0 | 719.8 | |||||||||
| Máxima | 31.6 | 73.1 | 1025.9 | 10.9 | S | 22.3 | SSW | 0.0 | 753.3 | |||||||||
| Mínima | 19.9 | 32.0 | 1023.9 | |||||||||||||||
| Total | 0.0 | |||||||||||||||||